Location: Krasnoyarskiy Pitomnik
(51.1333°N, 71.6167°E)
Time: 15:30:33
(UTC+00:00)

Cosmos 2360 - Pass Details

Date: 22 October 2021
Orbit: 844 x 857 km, 70.8° (Epoch: 26 November)

Event Time Altitude Azimuth Distance (km) Brightness Sun altitude
Rises 12:38:43 0° 210° (SSW) 3,398 8.0 -5.7°
Reaches altitude 10° 12:41:09 10° 212° (SSW) 2,469 7.3 -6.1°
Maximum altitude 12:46:50 83° 300° (WNW) 863 4.4 -7.0°
Drops below altitude 10° 12:52:36 10° 29° (NNE) 2,493 6.3 -7.9°
Sets 12:55:04 0° 31° (NNE) 3,435 7.0 -8.3°
